Location: PACMO
(41.3967°N, 90.3760°W)
Time: 01:54:35
(UTC-05:00)

Amateur Radio Satellites - All Passes

Search period start: 02 September 2014 01:24
Search period end: 03 September 2014 01:24
Location: PACMO, 41.3967°N, 90.3760°W

Satellite Date Start Highest point End Downlink Frequencies (MHz)
Time Altitude Azimuth
PCSat 02 Sep 01:35:17 01:40:39 56° 57° (ENE) 01:45:57 145.825 MHz
Oscar 19 02 Sep 01:40:20 01:44:16 21° 93° (E) 01:48:09 437.125 CW, 437.150 USB
AO-Echo 02 Sep 01:51:18 01:52:17 11° 89° (E) 01:53:16 ?
Oscar 10/S400 02 Sep 02:13:47 03:19:15 46° 220° (SW) 09:15:20 145.825 - 145.975 CW/USB, Beacon 145.810 USB
Oscar 16 02 Sep 02:14:52 02:19:53 46° 99° (E) 02:24:51 437.025 USB, Beacon 2401.1428
ITAMSAT 1 02 Sep 02:18:08 02:21:59 21° 93° (E) 02:25:49 435.822 SSB
KITSAT 1 02 Sep 02:20:14 02:25:35 19° 331° (NNW) 02:30:57 435.175 FM
SO-50 02 Sep 02:23:50 02:26:38 17° 109° (ESE) 02:29:29 436.795 FM
Uribyol 2 02 Sep 02:27:05 02:31:27 27° 95° (E) 02:35:49 436.500 FM
JAS-1B 02 Sep 02:33:03 02:38:33 28° 92° (E) 02:43:30 435.800 - 435.900 CW/SSB
TMSAT-1 02 Sep 02:41:53 02:43:16 11° 88° (E) 02:44:38 436.925 FM
AO-27 02 Sep 02:47:05 02:51:57 39° 98° (E) 02:56:48 436.795 MHz FM
Sapphire 02 Sep 02:49:38 02:54:39 39° 249° (WSW) 02:59:39 437.095 MHz 1200 baud AX-25 AFSK
OPAL 02 Sep 03:18:50 03:22:13 18° 59° (ENE) 03:25:38 ?
Oscar 19 02 Sep 03:18:51 03:23:49 47° 289° (WNW) 03:28:45 437.125 CW, 437.150 USB
PCSat 02 Sep 03:19:41 03:23:36 21° 254° (WSW) 03:27:31 145.825 MHz
AO-Echo 02 Sep 03:26:54 03:31:36 76° 285° (WNW) 03:36:19 ?
Gurwin Techsat 1B 02 Sep 03:28:44 03:33:49 44° 99° (E) 03:38:52 435.225 FM
Oscar 16 02 Sep 03:54:55 03:58:54 23° 296° (WNW) 04:02:53 437.025 USB, Beacon 2401.1428
ITAMSAT 1 02 Sep 03:56:44 04:01:43 48° 289° (WNW) 04:06:40 435.822 SSB
SO-50 02 Sep 04:02:20 04:06:43 54° 307° (NW) 04:11:14 436.795 FM
Uribyol 2 02 Sep 04:06:14 04:10:59 37° 292° (WNW) 04:15:44 436.500 FM
UOSAT-12 02 Sep 04:09:49 04:12:38 16° 109° (ESE) 04:15:28 437.025 FM, 437.400 FM
TMSAT-1 02 Sep 04:18:31 04:23:51 88° 285° (WNW) 04:29:09 436.925 FM
Uosat F 02 Sep 04:20:35 04:23:56 18° 92° (E) 04:27:17 435.120 FM
KITSAT 1 02 Sep 04:23:14 04:25:06 11° 2° (N) 04:26:57 435.175 FM
JAS-1B 02 Sep 04:23:16 04:29:29 42° 294° (WNW) 04:34:57 435.800 - 435.900 CW/SSB
AO-27 02 Sep 04:27:01 04:31:16 26° 295° (WNW) 04:35:30 436.795 MHz FM
AO-7 02 Sep 04:34:00 04:41:18 33° 97° (E) 04:48:32 29.400 - 29.500 MHz
OPAL 02 Sep 04:55:35 05:00:35 61° 257° (WSW) 05:05:42 ?
Gurwin Techsat 1B 02 Sep 05:09:18 05:13:30 24° 295° (WNW) 05:17:41 435.225 FM
SO-50 02 Sep 05:47:42 05:48:22 10° 328° (NNW) 05:49:01 436.795 FM
UOSAT-12 02 Sep 05:47:43 05:52:16 59° 306° (NW) 05:56:57 437.025 FM, 437.400 FM
Uosat F 02 Sep 05:58:10 06:03:01 53° 289° (WNW) 06:07:52 435.120 FM
TMSAT-1 02 Sep 06:00:56 06:02:58 12° 302° (WNW) 06:05:00 436.925 FM
Saudisat 1A 02 Sep 06:09:54 06:13:36 25° 46° (NE) 06:17:16 436.775 MHz
KITSAT 1 02 Sep 06:18:36 06:24:26 21° 32° (NNE) 06:30:13 435.175 FM
RS-15 02 Sep 06:24:53 06:33:59 31° 105° (ESE) 06:42:56 29.354 - 29.394 USB, Beacon 29.352 USB
AO-7 02 Sep 06:26:22 06:34:23 56° 295° (WNW) 06:42:22 29.400 - 29.500 MHz
STRAND 1 02 Sep 06:43:37 06:48:39 64° 73° (ENE) 06:53:41 ?
Hamsat 02 Sep 06:59:05 07:03:27 80° 102° (ESE) 07:07:45 145.90 MHz
JAS-2 02 Sep 07:13:46 07:19:06 88° 105° (ESE) 07:24:53 435.800 - 435.900 CW/SSB, 435.910 FM
UOSAT-12 02 Sep 07:31:53 07:33:26 11° 327° (NNW) 07:35:00 437.025 FM, 437.400 FM
SO-67 02 Sep 07:38:33 07:41:34 27° 96° (E) 07:44:34 435.3500 MHz FM
Saudisat 1A 02 Sep 07:49:11 07:53:18 39° 244° (WSW) 07:57:22 436.775 MHz
KITSAT 1 02 Sep 08:13:20 08:21:25 70° 56° (ENE) 08:29:27 435.175 FM
AO-7 02 Sep 08:22:04 08:25:22 13° 316° (NW) 08:28:40 29.400 - 29.500 MHz
STRAND 1 02 Sep 08:25:23 08:28:16 15° 269° (W) 08:31:09 ?
RS-15 02 Sep 08:34:18 08:45:21 73° 306° (NW) 08:56:18 29.354 - 29.394 USB, Beacon 29.352 USB
Hamsat 02 Sep 08:38:06 08:38:44 10° 299° (WNW) 08:39:21 145.90 MHz
ISS 02 Sep 08:47:26 08:49:10 14° 130° (SE) 08:50:55 145.800 FM
JAS-2 02 Sep 09:01:31 09:03:34 12° 301° (WNW) 09:05:40 435.800 - 435.900 CW/SSB, 435.910 FM
HO-68 02 Sep 09:04:09 09:09:52 25° 94° (E) 09:15:33 435.675 MHz FM
SO-67 02 Sep 09:12:10 09:14:24 16° 292° (WNW) 09:16:38 435.3500 MHz FM
KITSAT 1 02 Sep 10:09:46 10:16:06 26° 255° (WSW) 10:22:25 435.175 FM
ISS 02 Sep 10:22:12 10:25:31 70° 326° (NW) 10:28:50 145.800 FM
UKube-1 02 Sep 10:33:42 10:38:04 78° 103° (ESE) 10:42:24 145.840 MHz, 145.915 MHz
Oscar 11 02 Sep 10:36:54 10:41:13 56° 100° (E) 10:45:30 145.825 FM, Beacon 2401.500 USB
HO-68 02 Sep 10:50:58 10:58:00 62° 291° (WNW) 11:05:01 435.675 MHz FM
RS-15 02 Sep 10:51:06 10:59:59 27° 334° (NNW) 11:08:56 29.354 - 29.394 USB, Beacon 29.352 USB
SO-50 02 Sep 10:53:54 10:57:31 21° 43° (NE) 11:01:09 436.795 FM
FUNcube-1 02 Sep 11:10:08 11:14:36 52° 100° (E) 11:19:05 145.950 - 145.970 MHz USB
MaSat-1 02 Sep 11:55:52 11:59:25 20° 102° (ESE) 12:03:06 437.345 MHz
ISS 02 Sep 12:00:17 12:02:43 18° 345° (NNW) 12:05:08 145.800 FM
PANSAT 02 Sep 12:08:47 12:10:15 12° 177° (S) 12:11:43 not established
UKube-1 02 Sep 12:12:39 12:13:38 11° 300° (WNW) 12:14:36 145.840 MHz, 145.915 MHz
Oscar 11 02 Sep 12:14:36 12:16:56 14° 297° (WNW) 12:19:14 145.825 FM, Beacon 2401.500 USB
SO-50 02 Sep 12:33:43 12:38:28 61° 241° (WSW) 12:43:15 436.795 FM
UOSAT-12 02 Sep 12:38:01 12:41:23 19° 41° (NE) 12:44:43 437.025 FM, 437.400 FM
HO-68 02 Sep 12:41:38 12:44:18 12° 311° (NW) 12:46:57 435.675 MHz FM
FUNcube-1 02 Sep 12:47:43 12:50:34 17° 296° (WNW) 12:53:27 145.950 - 145.970 MHz USB
Oscar 19 02 Sep 12:57:09 13:01:40 32° 67° (ENE) 13:06:12 437.125 CW, 437.150 USB
AO-Echo 02 Sep 13:03:21 13:06:27 17° 63° (ENE) 13:09:31 ?
RS-15 02 Sep 13:09:41 13:17:33 21° 11° (N) 13:25:31 29.354 - 29.394 USB, Beacon 29.352 USB
JAS-1B 02 Sep 13:15:05 13:23:27 36° 63° (ENE) 13:30:58 435.800 - 435.900 CW/SSB
MaSat-1 02 Sep 13:31:09 13:35:59 53° 300° (WNW) 13:41:03 437.345 MHz
Oscar 16 02 Sep 13:31:49 13:36:56 68° 73° (ENE) 13:42:06 437.025 USB, Beacon 2401.1428
ITAMSAT 1 02 Sep 13:36:06 13:40:39 32° 67° (ENE) 13:45:12 435.822 SSB
ISS 02 Sep 13:38:28 13:40:25 15° 5° (N) 13:42:23 145.800 FM
Uribyol 2 02 Sep 13:44:59 13:49:47 41° 69° (ENE) 13:54:36 436.500 FM
AO-7 02 Sep 13:48:27 13:49:59 11° 41° (NE) 13:51:31 29.400 - 29.500 MHz
TMSAT-1 02 Sep 14:01:37 14:05:18 20° 62° (ENE) 14:08:59 436.925 FM
AO-27 02 Sep 14:05:17 14:10:22 61° 72° (ENE) 14:15:28 436.795 MHz FM
UOSAT-12 02 Sep 14:17:18 14:22:01 69° 240° (WSW) 14:26:38 437.025 FM, 437.400 FM
Oscar 19 02 Sep 14:36:21 14:40:56 32° 264° (W) 14:45:34 437.125 CW, 437.150 USB
AO-Echo 02 Sep 14:39:52 14:44:48 58° 259° (W) 14:49:36 ?
Gurwin Techsat 1B 02 Sep 14:49:51 14:55:07 70° 74° (ENE) 15:00:25 435.225 FM
JAS-1B 02 Sep 15:03:58 15:13:34 61° 259° (W) 15:22:09 435.800 - 435.900 CW/SSB
Oscar 16 02 Sep 15:14:02 15:16:46 14° 270° (W) 15:19:32 437.025 USB, Beacon 2401.1428
ISS 02 Sep 15:14:54 15:17:56 31° 25° (NNE) 15:20:57 145.800 FM
ITAMSAT 1 02 Sep 15:15:33 15:20:05 31° 264° (W) 15:24:40 435.822 SSB
RS-15 02 Sep 15:23:18 15:33:47 45° 43° (NE) 15:44:34 29.354 - 29.394 USB, Beacon 29.352 USB
Uribyol 2 02 Sep 15:25:16 15:29:23 24° 266° (W) 15:33:32 436.500 FM
AO-7 02 Sep 15:32:53 15:40:41 47° 63° (ENE) 15:48:30 29.400 - 29.500 MHz
Uosat F 02 Sep 15:33:48 15:37:54 26° 66° (ENE) 15:42:00 435.120 FM
TMSAT-1 02 Sep 15:39:34 15:44:45 57° 259° (W) 15:49:59 436.925 FM
AO-27 02 Sep 15:47:08 15:50:17 16° 269° (W) 15:53:27 436.795 MHz FM
Sapphire 02 Sep 15:48:53 15:53:18 26° 108° (ESE) 15:57:44 437.095 MHz 1200 baud AX-25 AFSK
PCSat 02 Sep 16:17:02 16:22:14 50° 113° (ESE) 16:27:28 145.825 MHz
Gurwin Techsat 1B 02 Sep 16:32:47 16:35:36 14° 270° (W) 16:38:25 435.225 FM
ISS 02 Sep 16:51:35 16:54:42 37° 223° (SW) 16:57:47 145.800 FM
JAS-1B 02 Sep 17:02:41 17:05:19 11° 276° (W) 17:07:53 435.800 - 435.900 CW/SSB
OPAL 02 Sep 17:05:34 17:10:20 35° 99° (E) 17:15:03 ?
Uosat F 02 Sep 17:11:53 17:16:30 37° 262° (W) 17:21:08 435.120 FM
AO-7 02 Sep 17:25:48 17:33:30 41° 261° (W) 17:41:15 29.400 - 29.500 MHz
JAS-2 02 Sep 17:26:35 17:31:58 37° 69° (ENE) 17:36:54 435.800 - 435.900 CW/SSB, 435.910 FM
Sapphire 02 Sep 17:31:18 17:36:27 45° 306° (NW) 17:41:39 437.095 MHz 1200 baud AX-25 AFSK
RS-15 02 Sep 17:35:46 17:46:33 60° 246° (WSW) 17:57:48 29.354 - 29.394 USB, Beacon 29.352 USB
Hamsat 02 Sep 17:52:11 17:56:24 56° 74° (ENE) 18:00:41 145.90 MHz
PCSat 02 Sep 18:01:24 18:05:55 26° 312° (NW) 18:10:27 145.825 MHz
SO-67 02 Sep 18:13:58 18:14:46 11° 65° (ENE) 18:15:33 435.3500 MHz FM
OPAL 02 Sep 18:44:34 18:49:05 30° 296° (WNW) 18:53:34 ?
STRAND 1 02 Sep 18:54:57 18:58:48 21° 93° (E) 19:02:37 ?
JAS-2 02 Sep 19:11:53 19:17:06 30° 263° (W) 19:21:54 435.800 - 435.900 CW/SSB, 435.910 FM
Hamsat 02 Sep 19:30:44 19:32:43 13° 270° (W) 19:34:43 145.90 MHz
HO-68 02 Sep 19:34:08 19:39:06 21° 56° (NE) 19:44:05 435.675 MHz FM
SO-67 02 Sep 19:44:03 19:47:23 46° 261° (W) 19:50:45 435.3500 MHz FM
RS-15 02 Sep 19:54:31 19:56:29 11° 266° (W) 19:58:28 29.354 - 29.394 USB, Beacon 29.352 USB
STRAND 1 02 Sep 20:33:20 20:38:12 46° 290° (WNW) 20:43:03 ?
HO-68 02 Sep 21:18:51 21:25:59 82° 254° (WSW) 21:33:11 435.675 MHz FM
UKube-1 02 Sep 21:29:06 21:33:25 68° 74° (ENE) 21:37:44 145.840 MHz, 145.915 MHz
Oscar 11 02 Sep 21:31:56 21:36:03 44° 72° (ENE) 21:40:13 145.825 FM, Beacon 2401.500 USB
MaSat-1 02 Sep 21:48:58 21:53:12 37° 56° (NE) 21:56:53 437.345 MHz
Saudisat 1A 02 Sep 21:55:16 21:59:31 52° 118° (ESE) 22:03:49 436.775 MHz
FUNcube-1 02 Sep 22:06:54 22:10:49 40° 71° (ENE) 22:14:51 145.950 - 145.970 MHz USB
KITSAT 1 02 Sep 22:41:32 22:49:09 48° 111° (ESE) 22:56:48 435.175 FM
UKube-1 02 Sep 23:09:12 23:10:03 11° 270° (W) 23:10:55 145.840 MHz, 145.915 MHz
Oscar 11 02 Sep 23:09:43 23:12:27 16° 268° (W) 23:15:13 145.825 FM, Beacon 2401.500 USB
HO-68 02 Sep 23:11:30 23:14:42 13° 272° (W) 23:17:55 435.675 MHz FM
MaSat-1 02 Sep 23:26:42 23:29:47 19° 258° (WSW) 23:32:34 437.345 MHz
Saudisat 1A 02 Sep 23:36:03 23:39:23 21° 317° (NW) 23:42:45 436.775 MHz
FUNcube-1 02 Sep 23:44:41 23:47:26 17° 268° (W) 23:50:13 145.950 - 145.970 MHz USB
Sapphire 03 Sep 00:36:07 00:40:34 25° 47° (NE) 00:44:58 437.095 MHz 1200 baud AX-25 AFSK
KITSAT 1 03 Sep 00:37:01 00:44:38 43° 312° (NW) 00:52:17 435.175 FM
PCSat 03 Sep 01:04:51 01:10:00 42° 54° (NE) 01:15:07 145.825 MHz
Oscar 19 03 Sep 01:11:48 01:12:20 10° 88° (E) 01:12:51 437.125 CW, 437.150 USB
